www.pogodaiklimat.ru

Погода и климат >> Архив погоды >> Португалия >> Визеу


ПОГОДА в Визеу

  • Прогноз погоды в Визеу
  • Монитор погоды в Визеу

АРХИВ ПОГОДЫ в Визеу

Время (UTC), дата Ветер
(напр.,м/с)
 
Видим.   Явления Облачность Т
(С)
Тd
(С)
f
(%)
Тe
(С)
Тes
(С)
Комфортность P
(гПа)
Po
(гПа)
Тmin
(С)
Tmax
(С)
R
(мм)
R24
(мм)
S
(см)
22 9.09 З 5 н/о н/о +11.7 +11.7 100 +9 +9 1020.2 945.0
23 9.09 З 5 н/о н/о +12.0 +11.9 99 +9 +9 1020.3 945.2
00 10.09 З 3 н/о н/о +12.7 +12.5 99 +11 +11 1020.1 945.2
01 10.09 В 1 н/о н/о +12.5 +12.3 99 +12 +12 1019.9 944.9
02 10.09 З 3 н/о н/о +12.8 +12.1 96 +11 +11 1019.2 944.3
03 10.09 СЗ 3 н/о н/о +12.5 +12.5 100 +11 +11 1019.3 944.4
04 10.09 СЗ 4 н/о н/о +11.2 +11.1 99 +9 +9 1019.2 944.0
05 10.09 С 7 н/о н/о +10.5 +4.2 65 +7 +7 1019.6 944.1
06 10.09 С 6 н/о н/о +10.1 +3.4 63 +7 +7 1020.3 944.7 +10.0
07 10.09 С 8 40 км 5/1 600 м
[Cu hum Ci sp]
+10.7 +3.6 61 +7 +7 1020.4 944.9
08 10.09 С 8 40 км 5/1 600 м
[Cu hum Ci sp]
+11.5 +4.4 62 +8 +8 1020.9 945.5
09 10.09 С 7 40 км 5/1 600 м
[Cu hum Ci sp]
+13.5 +4.3 54 +11 +12 1021.1 946.2
10 10.09 С 7 40 км 4/1 600 м
[Cu hum Ci sp]
+15.5 +3.9 46 +14 +16 1020.8 946.5
11 10.09 С 7 40 км 3/1 600 м
[Cu hum Ci sp]
+16.9 +3.3 40 +16 +19 1020.4 946.5
12 10.09 СЗ 5 40 км 3/1 600 м
[Cu hum Ci sp]
+18.2 +4.8 41 +18 +24 1019.9 946.5
13 10.09 С 5 н/о н/о +20.1 +4.0 35 +21 +21 комфорт 1019.3 946.2
14 10.09 С 6 н/о н/о +20.2 +2.9 32 +20 +20 1018.9 945.9
15 10.09 С 6 н/о н/о +21.8 +1.9 27 +22 +22 комфорт 1018.3 945.5
16 10.09 СЗ 9 н/о н/о +20.5 +1.3 28 +20 +20 1018.1 945.2
17 10.09 С 7 н/о н/о +19.8 +2.1 31 +20 +20 1018.5 945.4
18 10.09 С 6 н/о н/о +18.5 +3.3 36 +18 +18 1019.1 945.6 +21.8
19 10.09 С 4 н/о н/о +16.4 +4.2 44 +16 +16 1020.1 946.0
20 10.09 С 4 н/о н/о +14.9 +4.8 51 +14 +14 1021.6 947.0
21 10.09 С 6 н/о н/о +14.2 +5.2 55 +12 +12 1022.1 947.3
22 10.09 СЗ 3 н/о н/о +12.4 +5.4 62 +11 +11 1023.2 947.8
23 10.09 ЮВ 2 н/о н/о +12.3 +5.3 62 +12 +12 1023.5 948.2
00 11.09 СВ 4 н/о н/о +12.3 +5.6 64 +11 +11 1023.7 948.4
01 11.09 СВ 4 н/о н/о +11.9 +5.6 65 +10 +10 1023.6 948.2
02 11.09 СВ 6 н/о н/о +11.7 +5.7 67 +9 +9 1023.6 948.2
03 11.09 СВ 4 н/о н/о +10.9 +5.6 70 +9 +9 1024.0 948.4
04 11.09 С 4 н/о н/о +10.7 +5.6 71 +8 +8 1024.2 948.4
05 11.09 С 3 н/о н/о +10.6 +5.6 71 +9 +9 1024.7 948.8
06 11.09 В 6 н/о н/о +11.1 +5.7 69 +8 +8 1024.9 949.2 +10.1
07 11.09 В 7 40 км 3/0
[Ci sp]
+12.1 +5.9 66 +9 +9 1025.1 949.6
08 11.09 СВ 6 40 км 3/0
[Ci sp]
+13.4 +6.4 63 +11 +11 1025.0 949.9
09 11.09 СВ 7 40 км 3/0
[Ci sp]
+17.0 +6.6 50 +16 +17 1024.4 950.0
10 11.09 СВ 7 40 км 3/0
[Ci sp]
+19.4 +5.8 41 +19 +22 1023.9 950.2
11 11.09 В 10 40 км 3/0
[Ci sp]
+20.5 +4.8 36 +21 +21 комфорт 1023.4 950.0
12 11.09 В 8 40 км 1/0
[Ci sp]
+21.8 +5.5 35 +22 +25 комфорт 1022.5 949.7
13 11.09 СВ 8 н/о н/о +23.4 +6.4 33 +24 +24 комфорт 1021.8 949.1
14 11.09 СВ 8 н/о н/о +24.0 +5.5 30 +24 +24 комфорт 1021.0 948.7
15 11.09 В 7 н/о н/о +24.3 +4.5 28 +24 +24 комфорт 1020.4 948.3
16 11.09 СВ 8 н/о н/о +24.3 +4.6 28 +24 +24 комфорт 1020.3 948.1
17 11.09 СВ 7 н/о н/о +24.1 +4.1 27 +24 +24 комфорт 1020.3 948.1
18 11.09 СВ 6 н/о н/о +22.5 +4.4 31 +23 +23 комфорт 1021.0 948.4 +25.3
19 11.09 В 5 н/о н/о +20.9 +4.5 34 +22 +22 комфорт 1022.0 948.9
20 11.09 В 5 н/о н/о +20.0 +4.3 36 +20 +20 1023.1 949.7
21 11.09 В 8 н/о н/о +19.6 +5.5 40 +20 +20 1023.8 950.3
22 11.09 В 8 н/о н/о +18.8 +6.0 43 +18 +18 1024.4 950.7
23 11.09 СВ 4 н/о н/о +17.7 +6.6 48 +17 +17 1025.2 951.0
00 12.09 СВ 6 н/о н/о +17.1 +7.1 52 +16 +16 1025.1 950.9
01 12.09 СВ 7 н/о н/о +16.7 +7.2 53 +16 +16 1025.1 950.7
02 12.09 СВ 8 н/о н/о +16.3 +7.7 57 +15 +15 1025.1 950.6
03 12.09 В 7 н/о н/о +15.4 +7.5 59 +14 +14 1025.5 950.9
04 12.09 СВ 8 н/о н/о +14.7 +7.8 63 +13 +13 1025.9 951.0
05 12.09 СВ 8 н/о н/о +14.4 +7.8 65 +12 +12 1025.9 951.0
06 12.09 СВ 7 н/о н/о +13.8 +7.9 68 +12 +12 1026.8 951.6 +13.5
07 12.09 СВ 7 н/о н/о +14.6 +8.2 65 +13 +13 1027.2 952.2
08 12.09 СВ 7 40 км ясно +16.2 +8.6 61 +15 +15 1027.1 952.4
09 12.09 СВ 7 н/о н/о +18.4 +8.5 52 +18 +18 1026.7 952.7
10 12.09 В 6 н/о н/о +21.3 +8.5 44 +22 +22 комфорт 1026.7 953.4
11 12.09 В 8 н/о н/о +23.6 +8.8 39 +24 +24 комфорт 1026.0 953.1
12 12.09 В 9 н/о н/о +25.4 +7.5 32 +25 +25 комфорт 1024.7 952.5
13 12.09 В 8 н/о н/о +26.8 +7.2 29 +26 +26 жарко 1023.9 952.1
14 12.09 В 7 н/о н/о +28.5 +7.8 27 +28 +28 жарко 1023.2 951.5
15 12.09 СВ 5 н/о н/о +28.1 +7.2 27 +27 +27 жарко 1022.4 950.9
16 12.09 В 5 н/о н/о +28.0 +7.8 28 +28 +28 жарко 1022.0 950.5
17 12.09 В 6 н/о н/о +26.9 +7.6 29 +27 +27 жарко 1022.2 950.5
18 12.09 СВ 5 н/о н/о +26.0 +7.7 31 +26 +26 жарко 1022.4 950.5 +28.7
19 12.09 С 4 н/о н/о +24.2 +7.4 34 +24 +24 комфорт 1022.8 950.5
20 12.09 С 4 н/о н/о +23.9 +7.2 34 +24 +24 комфорт 1023.3 950.8
21 12.09 СВ 5 н/о н/о +23.1 +7.3 36 +24 +24 комфорт 1023.6 950.9
22 12.09 СВ 5 н/о н/о +23.8 +7.6 35 +24 +24 комфорт 1023.6 951.0
23 12.09 СВ 5 н/о н/о +23.4 +7.4 36 +24 +24 комфорт 1023.4 950.8
00 13.09 СВ 5 н/о н/о +22.6 +7.1 37 +23 +23 комфорт 1023.3 950.5
01 13.09 В 6 н/о н/о +21.9 +7.1 38 +23 +23 комфорт 1023.8 950.8
02 13.09 В 3 н/о н/о +20.9 +7.1 41 +22 +22 комфорт 1024.1 950.9
03 13.09 СВ 4 н/о н/о +20.3 +7.6 44 +21 +21 комфорт 1024.1 950.7
04 13.09 СВ 5 н/о н/о +19.8 +7.8 46 +21 +21 комфорт 1023.8 950.3
05 13.09 СВ 6 н/о н/о +18.7 +7.6 48 +19 +19 1023.7 950.0
06 13.09 СВ 7 н/о н/о +18.8 +7.5 48 +19 +19 1024.2 950.4 +18.5
07 13.09 СВ 7 40 км ясно +18.9 +8.3 50 +19 +19 1024.1 950.4
08 13.09 СВ 6 40 км ясно +20.6 +9.9 50 +22 +23 комфорт 1023.5 950.1
09 13.09 СВ 5 40 км 1/0
[Ci sp]
+22.9 +11.0 47 +25 +28 комфорт 1023.0 950.2
10 13.09 СВ 5 40 км 1/0
[Ci sp]
+24.5 +11.2 43 +26 +30 жарко 1022.3 949.9
11 13.09 СВ 6 40 км 1/0
[Ci sp]
+27.1 +10.1 34 +28 +32 жарко 1021.0 949.3
12 13.09 В 8 40 км 1/0
[Ci sp]
+27.9 +8.5 30 +28 +30 жарко 1020.0 948.6
13 13.09 СВ 7 н/о н/о +28.6 +9.1 30 +29 +29 жарко 1019.1 948.0
14 13.09 СВ 6 н/о н/о +29.5 +8.9 28 +29 +29 жарко 1018.5 947.6
15 13.09 В 8 н/о н/о +29.9 +7.5 25 +29 +29 жарко 1017.5 946.8
16 13.09 В 8 н/о н/о +28.5 +5.8 24 +27 +27 жарко 1017.5 946.5
17 13.09 В 9 н/о н/о +28.3 +4.9 23 +27 +27 жарко 1017.4 946.4
18 13.09 В 8 н/о н/о +26.4 +5.0 25 +26 +26 жарко 1018.4 946.9 +30.7
19 13.09 В 7 н/о н/о +25.1 +6.8 31 +25 +25 комфорт 1019.4 947.5
20 13.09 В 8 н/о н/о +23.2 +8.3 38 +24 +24 комфорт 1020.3 947.9
21 13.09 В 4 н/о н/о +20.9 +10.0 50 +23 +23 комфорт 1021.5 948.5
22 13.09 СВ 6 н/о н/о +20.1 +10.0 52 +21 +21 комфорт 1021.8 948.5
23 13.09 В 5 н/о н/о +18.7 +10.2 58 +19 +19 1022.9 949.3
00 14.09 СВ 6 н/о н/о +18.4 +10.7 61 +18 +18 1022.6 948.8
01 14.09 СВ 6 н/о н/о +17.5 +10.6 64 +17 +17 1022.8 948.8
02 14.09 В 7 н/о н/о +17.2 +10.9 66 +16 +16 1022.3 948.3
03 14.09 СВ 6 н/о н/о +16.8 +11.1 69 +16 +16 1022.0 947.9
04 14.09 В 8 н/о н/о +16.5 +11.4 72 +15 +15 1021.4 947.3
05 14.09 В 6 н/о н/о +16.6 +11.4 71 +16 +16 1021.4 947.4
06 14.09 СВ 6 н/о н/о +16.7 +11.8 73 +16 +16 1021.7 947.6 +16.2
07 14.09 СВ 6 н/о н/о +16.6 +11.8 73 +16 +16 1021.9 947.7
08 14.09 СВ 6 н/о н/о +17.5 +12.1 71 +17 +17 1022.0 948.1
09 14.09 СВ 6 н/о н/о +18.9 +12.0 64 +19 +19 1021.6 948.1
10 14.09 В 5 н/о н/о +19.9 +12.2 61 +21 +21 комфорт 1021.1 948.0
11 14.09 СВ 6 н/о н/о +20.9 +11.8 56 +23 +23 комфорт 1020.6 947.8
12 14.09 СВ 4 н/о н/о +22.5 +12.5 53 +25 +25 комфорт 1020.0 947.4
13 14.09 СВ 2 н/о н/о +23.8 +12.1 48 +26 +26 жарко 1018.9 946.7
14 14.09 В 4 н/о н/о +26.2 +11.4 40 +27 +27 жарко 1017.1 945.8
15 14.09 В 6 н/о н/о +25.7 +11.3 41 +27 +27 жарко 1017.1 945.3
16 14.09 СВ 3 н/о н/о +24.5 +11.4 44 +26 +26 жарко 1017.1 945.2
17 14.09 СЗ 4 н/о н/о +22.8 +12.4 52 +26 +26 жарко 1017.3 945.1
18 14.09 З 4 н/о н/о +17.6 +15.9 90 +17 +17 1019.7 946.0 +27.4 0.2
19 14.09 СЗ 1 н/о н/о +17.2 +16.9 98 +18 +18 1020.0 946.2
20 14.09 СЗ 2 н/о н/о +16.6 +16.6 100 +17 +17 1020.4 946.4
21 14.09 ЮВ 1 н/о н/о +16.7 +16.7 100 +18 +18 1020.7 946.7 0.2
22 14.09 ЮВ 2 н/о н/о +16.5 +16.5 100 +17 +17 1020.7 946.6
23 14.09 Ю 2 н/о н/о +17.5 +14.5 83 +18 +18 1020.4 946.6
00 15.09 В 2 н/о н/о +16.2 +15.3 94 +16 +16 1020.6 946.5
01 15.09 СВ 4 н/о н/о +15.3 +15.3 100 +14 +14 1020.7 946.4
02 15.09 СВ 4 н/о н/о +16.0 +13.7 86 +15 +15 1019.9 945.9
03 15.09 СВ 3 н/о н/о +15.4 +13.7 90 +15 +15 1020.0 945.7
04 15.09 В 5 н/о н/о +16.6 +13.2 80 +16 +16 1019.4 945.4
05 15.09 СВ 5 н/о н/о +15.8 +12.6 81 +15 +15 1019.5 945.4
06 15.09 СВ 6 н/о н/о +15.5 +12.7 83 +14 +14 1019.5 945.4 +14.1
07 15.09 СВ 6 н/о н/о +15.8 +12.3 80 +14 +14 1019.7 945.6
08 15.09 СВ 5 н/о н/о +18.1 +12.8 71 +18 +18 1019.6 946.0
09 15.09 СВ 4 н/о н/о +20.1 +13.4 65 +22 +22 комфорт 1019.4 946.3
10 15.09 В 4 н/о н/о +20.7 +13.6 64 +23 +23 комфорт 1019.1 946.4
11 15.09 В 3 н/о н/о +23.2 +13.5 54 +26 +26 жарко 1018.1 945.9
12 15.09 В 4 н/о н/о +25.0 +12.6 46 +27 +27 жарко 1017.6 945.6
13 15.09 В 3 н/о н/о +23.2 +12.7 52 +26 +26 жарко 1017.7 945.5
14 15.09 СВ 3 н/о н/о +23.7 +12.4 49 +26 +26 жарко 1017.4 945.2
15 15.09 В 4 н/о н/о +23.2 +12.2 50 +26 +26 жарко 1017.0 944.8
16 15.09 ЮВ 2 н/о н/о +24.0 +12.3 48 +26 +26 жарко 1016.5 944.6
17 15.09 СВ 2 н/о н/о +19.6 +18.8 95 +23 +23 комфорт 1017.7 944.6 0.4
18 15.09 С 3 н/о н/о +19.8 +17.4 86 +23 +23 комфорт 1017.8 944.8 +25.4 0.4
19 15.09 СЗ 4 н/о н/о +18.2 +17.4 95 +18 +18 1018.1 944.7
20 15.09 СЗ 4 н/о н/о +17.8 +15.5 86 +18 +18 1018.5 944.9
21 15.09 СЗ 4 н/о н/о +18.2 +15.3 83 +18 +18 1018.7 945.2 0.4
22 15.09 С 4 н/о н/о +17.1 +15.4 90 +17 +17 1019.2 945.4
23 15.09 СВ 4 н/о н/о +17.5 +14.6 83 +17 +17 1019.2 945.5
00 16.09 СВ 3 н/о н/о +17.1 +14.5 85 +17 +17 1019.1 945.3
01 16.09 СВ 2 н/о н/о +18.1 +14.4 79 +19 +19 1018.8 945.3
02 16.09 СВ 4 н/о н/о +18.0 +14.6 81 +18 +18 1018.5 945.0
03 16.09 СВ 4 н/о н/о +17.2 +15.1 87 +17 +17 1018.2 944.5
04 16.09 СВ 4 н/о н/о +17.5 +15.0 85 +17 +17 1017.9 944.3
05 16.09 СВ 4 н/о н/о +17.3 +14.8 85 +17 +17 1017.8 944.2
06 16.09 СВ 4 н/о н/о +16.8 +15.1 90 +16 +16 1017.9 944.1 +16.5
07 16.09 СВ 4 н/о н/о +16.7 +14.6 87 +16 +16 1018.3 944.5
08 16.09 СВ 4 30 км 6/3 900 м
[Sc diur, vesp Ac trans Ci sp]
+17.3 +14.8 85 +17 +18 1018.6 944.9
09 16.09 В 3 30 км 6/3 750 м
[Cu med, cong Ac trans Ci sp]
+20.6 +15.1 71 +24 +26 комфорт 1018.1 945.3
10 16.09 В 2 30 км 8/4 600 м
[Cu med, cong Ac trans Ci sp]
+21.5 +15.7 70 +25 +28 комфорт 1018.3 945.6
11 16.09 ЮВ 3 30 км 8/6 600 м
[Cb cap Ac cuf]
+23.3 +15.3 61 +28 +30 душно 1017.6 945.3
12 16.09 Ю 4 30 км 9/8 600 м
[Cb cap Ac cuf]
+23.8 +13.4 52 +26 +27 жарко 1016.8 944.9
13 16.09 ЮВ 4 н/о н/о +23.3 +14.6 58 +27 +27 душно 1016.7 944.7
14 16.09 СЗ 6 н/о н/о +19.5 +15.1 76 +21 +21 комфорт 1017.7 944.6
15 16.09 СЗ 6 н/о н/о +16.3 +16.3 100 +15 +15 1018.6 944.7 4
16 16.09 С 4 н/о н/о +17.1 +17.1 100 +17 +17 1017.7 944.0 3
17 16.09 С 3 н/о н/о +18.3 +17.6 96 +19 +19 1017.1 943.8
18 16.09 СВ 3 н/о н/о +18.3 +16.2 88 +19 +19 1017.2 943.9 +25.5 7
19 16.09 СВ 3 н/о н/о +18.3 +17.4 94 +19 +19 1017.2 943.9
20 16.09 В 3 н/о н/о +18.6 +15.8 84 +20 +20 1017.4 944.1
21 16.09 В 5 н/о н/о +18.7 +16.7 88 +19 +19 1017.7 944.4 7

 

Местоположение метеостанции Визеу (Португалия): широта 40.72 долгота -7.88 высота над уровнем моря 644 м.

В архиве по умолчанию представлена погода в Визеу за последнюю неделю. Архивные данные за месяц целиком и за предыдущие месяцы, начиная с января 2011 года, Вы можете получить, выбрав интересующий диапазон дат из раскрывающегося списка и нажав кнопку "Ввод!".


*Определитесь, кто Вы:
робот инопланетянин человек

Внимание! Время в таблицах - всемирное. Для получения местного времени необходимо прибавить поправку, которая равна 0 ч.

Смотрите также архив погоды в соседних городах и на ближайших метеорологических станциях:

Погода в Обсерватории Penhas Douradas (Португалия) (43 км)
Погода в Вила-Реале (Португалия) (63 км)
Погода в Оваре (Португалия) (67 км)
Погода в Коимбре (Португалия) (81 км)
Погода в Порту (Португалия) (88 км)
Погода в Кастело Бранко (Португалия) (105 км)
Погода в Саэлисес-эль-Чико (Испания) (108 км)
Погода в Витигудино (Испания) (125 км)
Погода в Виана-ду-Каштелу (Португалия) (127 км)
Погода в Монте-Реале (Португалия) (130 км)

Пояснения к столбцам:

Ветер - указаны скорость ветра в м/с - средняя за 10 мин, порывы в срок и между сроками (в фигурных скобках) и направление, откуда дует ветер: С - северный, СВ - северо-восточный, В - восточный, ЮВ - юго-восточный, Ю - южный, ЮЗ - юго-западный, З - западный, СЗ - северо-западный.
Видимость - горизонтальная дальность видимости в метрах или километрах. При видимости от 1 до 10 км при отсутствии осадков обычно наблюдается дымка, при ухудшении видимости до 1 км и менее - туман. В сухую погоду видимость может ухудшаться дымом, пылью или мглою.
Явления - указаны атмосферные явления, наблюдавшиеся в срок или в последний час перед сроком; фигурными скобками обозначены явления, наблюдавшиеся между сроками (за 1-3 часа до срока); квадратными скобками обозначены град или гололедные отложения с указанием их диаметра в мм.
Облачность - указаны через наклонную черту общая и нижняя облачность в баллах и высота нижней границы облаков в метрах; квадратными скобками обозначены формы облаков: Ci - перистые, Cs - перисто-слоистые, Cc - перисто-кучевые, Ac - высококучевые, As - высокослоистые, Sc - слоисто-кучевые, Ns - слоисто-дождевые, Cu - кучевые, Cb - кучево-дождевые. Подробнее классификацию облаков см. в Атласе облаков (PDF).
T - Температура воздуха - температура, измеренная на высоте 2 м над землей.
Td - Температура точки росы - температура, при понижении до которой содержащийся в воздухе водяной пар достигнет насыщения.
f - Относительная влажность воздуха - влажноcть воздуха, измеренная на высоте 2 м над землей.
Te - Эффективная температура - температура, которую ощущает одетый по сезону человек в тени. Характеристика душности погоды. При расчете учитывается влияние влажности воздуха и скорости ветра на теплоощущения человека.
Tes - Эффективная температура на солнце - температура, которую ощущает человек, с поправкой на солнечный нагрев. Характеристика знойности погоды. Зависит от высоты солнца над горизонтом, облачности и скорости ветра. Ночью, в пасмурную погоду, а также при ветре 12 м/с и более поправка равна нулю.
P - Атмосферное давление - приведенное к уровню моря атмосферное давление.
Po - Атмосферное давление - измеренное на уровне метеостанции атмосферное давление.
Tmin - Минимальная температура - минимум температуры воздуха на высоте 2 м над землей.
Tmax - Максимальная температура - максимум температуры воздуха на высоте 2 м над землей.
R - Количество осадков - Количество выпавших осадков за период времени, мм. При наведении курсора мыши на число - период времени, за который выпало указанное количество осадков.
R24 - Количество осадков - Количество выпавших осадков за 24 часа, мм.
S - Снежный покров - Высота снежного покрова, см. При наведении курсора мыши на число - состояние снежного покрова и степень покрытия местности в баллах.